Regional Weather Roundup
Issued by NWS

Home | Current Version | Previous Version | Graphics & Text | Print | Product List | Glossary On
Versions: 1 2 3 4 5 6 7 8 9 10 11 12 13 14 15 16 17 18 19 20 21 22 23 24 25 26 27 28 29 30 31 32 33 34 35 36 37 38 39 40 41 42 43 44 45 46 47 48 49 50
000
ASUS45 KBOI 290510
RWRID
WEATHER ROUNDUP FOR IDAHO
NATIONAL WEATHER SERVICE BOISE ID
1100 PM MDT SAT MAR 28 2015

NOTE: "FAIR" INDICATES FEW OR NO CLOUDS BELOW 12000 FEET
WITH NO SIGNIFICANT WEATHER AND/OR OBSTRUCTIONS TO VISIBILITY

IDZ012-014-290600-
SOUTHWEST IDAHO


CITY           SKY/WX    TMP DP  RH WIND       PRES   REMARKS
BOISE          CLEAR     49  26  41 W5        30.29S
CALDWELL       CLEAR     48  27  43 CALM      30.31S
MOUNTAIN HOME  CLEAR     43  26  51 SW6       30.30R
$$

IDZ016-017-290600-
SOUTHCENTRAL IDAHO


CITY           SKY/WX    TMP DP  RH WIND       PRES   REMARKS
BURLEY         CLEAR     44  23  43 SW14      30.26R
JEROME         CLEAR     43  23  45 SW16      30.27S
TWIN FALLS     CLEAR     44  23  43 SW14      30.29S
$$

IDZ019>023-290600-
SOUTHEAST IDAHO


CITY           SKY/WX    TMP DP  RH WIND       PRES   REMARKS
IDAHO FALLS    CLEAR     46  21  37 S10       30.27R
POCATELLO      CLEAR     45  19  35 SW16      30.28R
REXBURG        PTCLDY    45  13  27 VRB3      30.26R
$$

IDZ006-010-011-018-031-032-290600-
CENTRAL IDAHO MOUNTAINS


CITY           SKY/WX    TMP DP  RH WIND       PRES   REMARKS
MCCALL         CLEAR     36  26  67 N3        30.31R
HAILEY         CLEAR     46  19  34 W5        30.27R
STANLEY          N/A     28  21  75 SE6       30.33S WCI  22
SALMON         CLEAR     37  21  52 CALM      30.32R
CHALLIS        CLEAR     41  21  44 NW8       30.29R
$$

IDZ002-004-006-007-026-290600-
NORTHERN IDAHO


CITY           SKY/WX    TMP DP  RH WIND       PRES   REMARKS
LEWISTON       CLEAR     48  35  60 CALM      30.32S
LOWELL           N/A     46  43  89 CALM      30.37S
COEUR D`ALENE  CLEAR     46  36  66 S12       30.28R
MULLAN PASS    CLOUDY    32  32 100 VRB5      30.28S FOG     WCI  27
$$


USA.gov is the U.S. government's official web portal to all federal, state and local government web resources and services.